Wind_Speed
15 14 14 4 3 4 6 5 3 11 8 14 21 17 22 16 6 5 15 30 31 21 6 7 8 7 8 9 9 11 12 13 16 17 19 21 23 26 27 26 25 25 20 14 12 13 13 17 21
15 15 1 2 2 2 4 4 9 20 20 14 17 11 17 9 10 4 12 34 24 17 18 15 9 10 10 9 9 9 10 11 12 15 16 20 22 23 23 21 18 10 10 9 12 11 15 21 23
18 10 2 3 2 4 2 7 16 17 24 16 8 14 7 7 10 4 17 23 17 24 23 23 15 13 11 9 8 7 7 11 11 14 17 17 19 18 19 17 8 7 11 14 15 11 18 22 21
7 3 4 1 7 7 7 15 20 17 17 17 6 12 7 5 2 6 18 23 23 23 25 16 21 20 15 13 8 7 6 8 9 11 13 17 17 16 13 11 9 10 16 22 20 12 21 20 21
5 2 1 3 4 2 15 20 22 25 8 19 9 10 9 4 10 13 22 27 29 25 23 24 21 20 17 18 12 8 6 5 7 10 13 14 13 11 12 10 13 16 16 19 20 19 20 19 20
4 2 5 4 8 9 18 20 24 19 20 15 15 10 11 17 13 16 22 29 29 31 22 20 20 22 19 16 19 14 7 3 5 8 11 11 10 10 13 14 18 18 12 15 14 19 18 20 20
3 3 4 9 9 19 16 15 20 21 14 21 11 8 8 18 29 16 26 27 33 29 32 28 19 17 17 13 14 15 11 5 2 7 10 12 10 11 16 16 21 23 17 12 11 19 18 20 19
1 3 9 9 9 12 16 25 19 18 18 10 7 8 6 20 28 25 24 25 34 39 33 37 32 22 19 16 15 14 16 8 2 2 9 12 11 15 18 18 22 23 22 15 10 18 18 19 17
4 5 5 6 7 5 15 23 23 20 20 21 17 14 16 23 29 29 25 28 28 35 40 34 36 32 24 21 18 14 15 15 8 3 7 12 14 16 21 21 21 23 21 19 13 18 19 18 17
6 5 6 7 7 15 20 20 19 14 18 18 16 17 23 25 28 28 28 28 28 31 33 36 35 36 30 26 23 20 16 18 16 8 8 13 16 21 23 21 23 23 21 19 17 19 20 19 16
4 4 5 10 13 16 17 23 20 15 17 14 15 14 20 26 28 28 28 29 29 29 36 37 32 33 36 29 28 24 21 21 22 15 8 15 18 24 26 24 25 23 20 19 19 22 22 21 17
6 9 8 8 10 9 18 17 19 18 14 16 16 19 22 24 27 29 29 29 30 30 34 37 31 33 39 29 30 27 25 24 25 23 11 14 22 26 28 28 27 25 24 23 22 26 26 22 16
8 4 9 10 10 13 21 20 13 16 16 20 21 20 16 22 26 30 31 31 32 31 34 35 32 34 37 32 31 31 28 25 24 22 16 6 18 26 29 29 27 27 27 29 27 28 28 23 16
5 6 5 9 14 12 20 17 15 15 18 19 17 14 18 22 25 29 33 32 34 32 35 35 35 36 33 31 30 32 28 25 24 24 24 9 13 22 25 29 29 28 28 28 30 30 30 27 20
7 6 6 9 9 6 9 16 13 13 19 18 17 16 15 22 26 26 31 31 34 31 36 36 36 37 36 35 34 30 28 23 24 25 22 15 7 19 22 26 27 27 28 27 29 30 29 26 22
9 8 7 12 14 7 8 5 9 12 15 12 14 14 14 20 25 29 31 31 35 35 36 37 39 38 37 37 35 31 29 23 24 25 24 19 10 9 21 23 25 27 26 28 21 28 26 23 26
9 5 12 4 19 8 9 10 8 11 11 9 9 10 12 13 23 27 32 32 30 32 34 35 37 38 33 30 32 32 32 28 25 23 26 22 19 8 18 20 22 22 24 22 30 22 16 18 27
7 5 7 7 10 11 8 6 11 10 10 7 8 7 8 9 10 25 29 33 33 34 34 33 35 37 32 30 29 30 28 27 26 26 26 25 22 16 6 19 15 16 23 26 23 28 26 26 30
5 6 8 14 15 11 6 11 8 7 9 9 8 8 9 9 21 25 27 29 30 34 35 34 35 36 30 30 30 30 28 28 26 29 26 26 24 17 16 3 10 14 19 22 28 24 25 24 25
7 12 11 8 13 10 6 7 7 8 6 8 8 9 9 9 11 20 26 29 27 31 33 33 34 35 31 29 29 27 25 25 23 26 26 26 26 21 17 12 5 12 15 21 21 25 14 18 27
8 11 16 16 20 5 11 5 9 4 9 10 7 6 7 7 7 12 20 24 24 28 30 31 30 32 29 30 28 27 26 26 27 29 28 30 25 23 18 15 5 17 15 20 23 24 23 19 27
8 15 18 18 3 4 9 2 1 5 8 8 8 7 6 5 6 12 15 19 21 24 27 28 30 30 27 28 28 25 24 24 25 25 26 26 26 24 21 17 13 5 16 21 23 24 22 21 17
7 17 13 12 5 4 9 4 4 6 6 5 6 6 7 6 6 8 11 15 19 21 23 24 28 31 26 27 24 24 23 23 23 25 27 26 26 24 23 22 16 8 7 21 22 23 29 31 25
9 12 6 7 4 3 3 3 2 1 4 4 4 6 6 7 7 12 13 14 17 18 20 21 25 30 25 24 24 24 23 23 24 26 25 27 26 25 26 23 19 14 5 4 21 26 26 30 29
8 6 4 5 5 4 4 3 6 6 5 2 3 3 5 6 7 9 15 17 18 17 17 19 22 26 27 23 24 23 26 22 22 23 23 25 25 24 26 27 22 19 13 6 11 24 28 31 32
6 7 4 3 2 6 2 2 5 7 7 1 3 4 6 7 6 9 14 16 20 20 18 17 20 23 27 22 22 24 24 25 22 22 22 21 23 23 24 25 21 19 16 10 6 18 25 26 28
4 4 2 3 6 1 3 5 6 8 6 4 5 5 5 5 6 7 14 15 19 20 21 16 18 20 21 22 23 23 24 26 24 22 22 21 24 23 24 24 21 20 18 13 9 9 22 24 29
5 1 4 3 3 5 6 5 4 6 2 6 4 3 3 5 6 9 13 14 18 18 19 21 17 18 16 19 22 23 23 23 22 22 23 24 25 22 22 23 20 20 19 15 12 8 18 24 24
3 1 1 3 2 2 3 6 5 4 5 6 6 6 5 5 5 7 10 15 17 16 17 19 19 16 17 20 20 22 23 22 21 21 23 26 24 22 21 21 18 18 19 15 13 12 11 17 26
2 5 4 3 4 3 4 6 2 7 4 4 6 6 5 5 7 9 11 17 14 14 16 18 19 15 17 18 19 20 22 20 21 22 23 25 23 20 20 20 18 14 15 16 15 13 11 7 21
Wind_Direction
321 309 310 296 41 79 252 300 42 46 28 45 51 78 91 52 7 64 332 346 5 59 251 46 75 71 62 71 80 94 110 121 124 125 130 127 127 129 132 132 132 126 117 108 128 135 137 137 134
326 330 279 259 107 296 328 72 62 48 21 80 62 69 51 62 38 20 2 351 0 36 57 48 49 50 59 61 76 100 111 122 125 130 135 132 130 136 136 133 133 136 163 167 128 138 141 136 135
309 291 56 150 209 210 83 20 37 57 35 18 99 48 53 337 1 17 347 358 9 43 55 46 57 60 50 69 75 94 112 118 124 132 137 135 133 134 137 133 123 126 142 161 159 144 144 141 135
301 14 333 93 258 353 84 62 54 37 25 29 82 65 95 103 4 14 5 18 26 42 51 50 53 52 54 44 65 79 94 115 129 137 142 145 136 136 147 147 136 150 152 151 142 167 153 145 139
256 319 274 289 342 61 62 66 66 59 62 43 85 76 94 82 82 67 30 22 23 27 46 36 47 50 50 48 32 38 75 106 135 143 145 144 144 143 152 150 124 135 145 156 161 169 156 147 148
341 117 346 317 55 56 65 73 67 68 44 40 83 90 58 47 79 54 40 36 32 32 23 37 22 40 45 47 47 26 20 61 134 155 161 150 145 143 154 146 134 133 149 159 164 163 159 157 155
165 40 267 353 107 46 68 75 75 63 50 33 49 90 50 33 42 61 43 36 38 31 31 30 36 21 29 44 38 33 19 3 83 154 169 166 172 166 166 160 151 147 151 177 171 167 167 163 165
88 74 344 29 55 47 63 69 76 72 45 67 38 44 18 21 31 35 35 31 30 31 29 27 23 32 20 24 38 30 30 360 358 170 172 184 188 178 177 169 161 159 156 175 194 177 172 170 175
13 49 36 32 35 85 36 85 75 71 77 65 66 58 41 36 33 27 27 27 27 32 27 26 19 21 21 23 26 28 20 26 347 280 192 184 182 185 180 172 168 165 159 175 196 187 178 177 178
64 58 49 40 16 87 62 53 58 74 61 62 56 46 40 40 35 27 22 18 22 32 25 21 18 13 16 17 20 11 18 15 12 322 233 195 190 185 183 181 175 171 168 174 191 192 184 183 183
44 92 86 27 67 93 83 66 47 74 61 65 57 44 39 41 34 26 20 20 12 30 24 21 20 13 10 11 15 6 7 10 4 2 267 203 194 186 187 183 179 177 176 179 189 195 189 188 189
78 68 87 63 47 76 93 87 58 61 67 63 57 49 43 44 32 23 14 15 12 26 21 17 19 18 9 11 12 13 16 5 355 357 344 227 202 194 190 187 187 183 180 187 193 196 191 190 196
49 69 98 106 92 60 83 74 79 58 63 62 53 51 45 50 38 23 15 14 13 24 19 15 15 16 10 7 5 14 11 358 346 347 357 323 229 205 196 192 192 189 190 195 195 195 192 189 189
335 17 95 86 81 54 86 61 75 43 51 46 42 42 44 45 39 27 15 12 10 20 19 13 12 9 10 7 10 15 1 5 352 344 350 344 254 217 201 199 200 203 199 202 194 194 193 193 196
303 1 325 33 53 50 115 52 56 53 50 41 35 31 37 38 39 34 21 12 10 20 18 16 11 6 8 10 9 8 355 10 360 352 353 3 340 250 210 201 207 208 210 206 196 192 197 201 202
1 64 15 37 37 19 55 99 64 63 57 42 38 30 34 31 29 22 23 21 17 21 19 14 12 8 9 5 7 4 359 8 7 354 352 359 0 236 222 207 205 211 217 215 203 187 197 208 192
26 344 339 336 34 9 36 124 84 69 70 57 49 45 36 30 22 21 18 15 17 23 20 16 12 7 9 3 5 2 4 5 2 353 355 360 9 345 226 218 208 208 204 207 212 197 204 216 195
324 328 321 6 339 12 19 100 90 91 79 66 51 47 43 39 27 25 23 17 18 21 19 17 12 8 9 7 5 2 2 358 6 355 360 -0 7 21 11 229 214 209 210 209 204 210 214 227 195
336 22 11 341 326 338 311 95 89 86 72 59 40 37 33 26 23 25 25 15 18 22 19 15 12 7 14 7 5 1 356 353 358 359 360 1 5 9 29 5 239 221 215 208 215 208 219 208 187
356 16 335 272 296 296 80 91 90 79 86 79 60 41 34 23 17 15 19 16 19 23 18 13 10 6 8 9 6 3 357 354 351 355 357 0 3 8 12 7 262 228 221 215 214 211 204 165 177
16 354 326 307 301 68 97 37 14 7 62 58 52 61 47 30 14 14 16 14 19 25 19 12 9 3 4 5 5 0 1 2 355 355 354 356 3 5 8 10 316 232 234 222 215 209 194 178 180
8 336 328 313 55 76 28 93 118 358 46 39 33 38 33 29 26 19 16 14 22 23 18 12 8 2 2 6 1 1 1 357 354 347 346 348 359 2 5 7 8 263 231 225 219 215 185 170 181
334 336 321 29 63 80 24 76 260 38 11 13 14 25 23 18 34 11 13 20 22 20 18 15 6 357 360 7 1 356 359 355 351 353 350 349 350 1 4 2 5 359 229 232 226 213 199 199 193
339 330 351 23 46 40 262 2 265 251 265 328 14 23 20 10 13 6 12 19 18 15 15 14 11 355 357 7 6 355 356 356 354 353 351 350 347 347 354 357 354 353 351 240 236 227 213 206 204
15 11 7 354 11 254 246 38 226 235 256 21 332 37 32 27 20 14 18 18 8 7 11 15 9 358 352 4 4 3 358 353 355 354 350 348 345 343 342 345 349 345 339 330 234 235 218 216 213
23 63 121 290 316 278 313 240 258 231 261 348 354 57 42 27 13 7 9 12 6 2 0 10 8 360 352 3 2 1 358 355 353 353 350 348 343 335 335 337 341 341 329 326 277 238 233 224 213
320 30 255 244 259 14 250 311 325 244 232 354 19 29 20 25 11 357 5 7 2 353 357 357 2 360 357 5 1 359 360 354 354 350 353 348 342 337 333 339 341 341 335 324 313 262 235 231 226
123 174 11 357 350 318 304 290 240 216 314 295 309 338 356 26 8 349 352 0 358 350 351 350 353 355 360 5 359 356 355 353 355 350 353 349 345 341 338 341 342 339 339 332 319 308 238 233 227
2 356 100 169 178 194 296 273 215 190 267 303 350 339 340 6 350 328 344 352 338 345 342 343 346 354 10 4 357 354 349 355 351 354 355 349 347 347 345 344 343 342 342 337 330 308 270 232 231
179 254 132 110 290 215 190 275 86 174 237 294 311 316 336 344 320 327 345 335 329 336 339 345 343 12 10 0 352 350 351 351 357 355 357 353 351 352 351 351 353 349 351 345 333 325 304 284 231
Height
772 769 769 770 796 795 796 778 756 760 752 746 744 761 800 810 814 825 827 823 820 812 810 803 807 811 808 804 804 802 800 801 802 802 805 804 804 807 809 810 814 817 819 824 827 829 831 831 833
770 767 767 772 800 811 799 767 770 773 763 753 764 779 796 822 825 828 824 821 821 818 807 807 808 807 807 807 807 808 804 803 805 805 808 808 808 810 812 814 817 820 822 826 829 831 833 833 836
771 772 779 788 797 805 794 774 775 770 763 761 780 797 814 837 834 834 831 827 821 816 813 812 811 809 809 810 810 810 808 806 808 808 810 811 811 814 815 816 819 822 824 827 830 834 834 836 838
772 771 775 795 796 784 783 782 778 774 772 775 786 811 833 837 836 836 830 826 823 819 818 819 815 811 810 809 810 811 810 809 810 810 811 812 814 815 817 818 820 823 826 829 832 834 836 838 840
770 775 795 795 792 787 780 784 780 793 790 794 793 829 833 838 836 836 833 826 822 820 816 817 812 811 811 810 811 812 811 812 813 812 812 814 815 817 817 819 821 825 828 832 833 835 837 839 842
780 779 808 811 803 788 788 789 788 799 807 805 807 818 835 839 836 835 834 830 827 823 821 811 814 811 810 809 810 813 813 813 813 813 813 815 817 818 818 820 824 827 830 835 835 837 839 841 843
783 795 802 801 802 798 799 790 801 810 811 819 814 831 842 837 837 837 835 834 830 827 823 822 809 813 814 813 814 813 812 813 812 812 814 815 817 818 819 820 823 824 830 836 837 839 841 842 844
777 790 802 812 812 819 805 801 804 807 824 819 821 841 845 841 840 839 838 835 832 828 823 818 820 813 816 814 812 812 811 812 812 812 812 814 816 817 818 821 823 827 827 834 837 840 842 843 845
769 806 823 819 814 824 812 811 813 817 823 827 836 842 845 845 842 841 838 836 833 829 826 826 824 819 817 814 810 810 812 810 811 811 812 813 814 817 818 821 823 826 826 831 836 840 842 844 845
790 819 816 811 809 824 824 819 820 825 833 836 842 846 846 847 845 844 841 838 834 833 831 828 825 823 817 815 810 810 810 808 809 810 811 810 813 815 818 820 823 824 827 830 835 839 842 845 846
790 816 811 815 813 818 826 828 831 831 841 844 850 851 850 849 848 848 846 844 841 839 835 832 830 825 817 815 810 812 809 808 809 809 810 810 811 813 817 820 823 825 827 829 833 838 841 843 846
807 806 808 816 817 822 831 834 839 840 848 848 852 854 854 854 854 853 851 848 845 842 839 836 832 827 823 819 815 816 809 810 809 808 808 810 808 809 812 817 820 822 823 826 831 835 839 843 845
809 808 810 814 817 825 831 840 844 848 850 852 855 857 858 859 859 858 856 853 849 845 842 839 836 833 828 823 820 813 812 811 810 808 807 808 808 807 810 814 817 820 823 826 829 833 838 841 843
808 808 813 815 825 831 842 851 847 858 856 858 859 861 862 863 864 862 858 856 852 849 845 842 837 834 831 829 821 813 817 813 811 809 808 807 807 807 807 810 814 817 821 823 826 829 836 839 841
809 820 818 828 830 840 840 861 865 865 863 866 866 866 866 867 867 866 865 862 858 854 850 846 842 836 831 826 821 819 822 813 814 811 809 806 806 805 805 807 811 815 818 820 823 828 833 838 842
833 838 857 847 845 846 845 877 874 872 872 875 873 872 872 872 872 871 869 867 863 859 854 850 846 840 833 829 828 826 824 814 815 813 809 807 804 804 803 805 807 812 815 819 822 823 831 836 839
864 876 861 856 852 860 859 876 878 876 877 880 880 878 876 875 874 874 873 871 868 864 860 856 852 847 843 838 832 829 820 818 819 816 812 808 803 802 803 804 806 809 813 817 821 823 829 833 837
881 875 872 877 869 865 870 883 878 878 879 884 884 882 880 878 878 877 876 874 872 868 865 861 856 852 847 842 838 834 828 825 820 817 813 808 803 801 801 804 804 807 811 814 818 823 826 831 833
871 873 880 874 863 863 867 888 887 885 885 889 888 885 884 883 880 880 878 876 874 871 868 865 861 857 852 845 841 836 831 827 822 817 815 810 806 802 800 802 805 806 808 811 815 820 822 825 830
872 879 882 872 861 859 873 888 883 881 887 888 889 888 887 885 883 882 881 878 876 873 871 868 865 861 856 852 846 842 836 831 826 822 817 812 808 804 802 801 802 804 806 809 812 816 819 816 825
876 882 876 871 855 858 878 895 891 885 885 884 887 887 886 887 887 884 882 880 878 875 873 871 868 864 859 853 849 843 838 832 826 822 818 814 810 808 803 801 800 802 804 807 809 813 816 819 825
887 874 869 856 864 888 875 914 902 889 888 889 889 890 889 888 886 883 883 881 878 876 874 872 868 864 860 855 850 846 842 837 833 827 823 818 812 808 804 801 800 800 802 805 806 811 814 819 821
888 873 870 864 878 885 884 904 906 895 894 893 893 890 889 888 886 884 883 880 878 876 874 872 869 865 861 858 853 848 843 839 835 829 823 818 814 809 804 802 799 799 799 802 804 807 809 813 817
882 879 870 873 883 927 892 894 917 911 901 894 891 890 889 888 886 884 883 880 878 876 874 871 869 866 862 858 854 850 845 840 835 830 825 820 815 810 807 804 803 800 798 797 801 804 807 810 814
888 894 916 907 927 932 894 910 932 899 891 890 889 889 889 888 887 885 883 881 878 876 873 871 868 865 861 858 854 850 845 841 837 832 828 823 818 813 809 807 802 799 797 796 797 800 801 804 808
892 903 946 939 955 937 886 947 923 896 892 886 886 888 888 889 887 885 882 880 878 876 873 870 867 864 861 858 855 850 847 842 837 833 830 826 821 815 811 807 803 800 797 794 794 795 797 800 802
894 917 894 914 904 917 929 922 906 889 886 885 887 887 888 887 885 884 881 880 877 875 872 869 866 863 860 858 855 851 847 843 837 833 830 826 821 815 810 805 802 800 795 794 792 792 793 795 798
892 892 924 929 954 957 950 929 928 893 889 889 888 887 886 885 883 882 879 878 876 873 871 868 865 862 860 857 855 852 848 844 840 835 830 825 821 815 810 805 801 798 795 791 790 788 789 792 794
904 901 907 912 921 961 980 945 908 899 894 893 889 886 886 884 881 879 877 875 874 871 868 866 863 860 858 856 854 851 848 843 839 836 831 826 820 814 810 806 802 799 795 791 786 786 785 786 790
886 895 894 929 912 915 936 934 883 891 887 885 887 884 883 880 878 877 875 873 870 868 866 864 861 859 857 855 853 850 847 843 838 834 830 825 820 815 810 805 802 798 795 792 788 786 784 784 785